Regional Weather Roundup
Issued by NWS

Home | Current Version | Previous Version | Graphics & Text | Print | Product List | Glossary On
Versions: 1 2 3 4 5 6 7 8 9 10 11 12 13 14 15 16 17 18 19 20 21 22 23 24 25 26 27 28 29 30 31 32 33 34 35 36 37 38 39 40 41 42 43 44 45 46 47 48 49 50
000
ASUS43 KMPX 021910
RWRMN
WEATHER ROUNDUP FOR MINNESOTA
NATIONAL WEATHER SERVICE TWIN CITIES/CHANHASSEN MN
100 PM CST MON MAR 02 2015


NOTE: "FAIR" INDICATES FEW OR NO CLOUDS BELOW 12,000 FEET WITH NO
SIGNIFICANT WEATHER AND/OR OBSTRUCTIONS TO VISIBILITY. N/A MEANS
CURRENT SKY AND/OR WEATHER CONDITIONS ARE NOT AVAILABLE.

MNZ060>063-068>070-022000-
   Twin Cities Metro

CITY           SKY/WX    TMP DP  RH WIND       PRES   REMARKS
CRYSTAL        SUNNY     27   5  39 S7        30.39F WCI  19
$$
MNZ001>005-007-008-013>017-022>024-027-028-022000-
   Northwest Minnesota

CITY           SKY/WX    TMP DP  RH WIND       PRES   REMARKS
THIEF RVR FALL SUNNY     19   9  63 S14       30.20F WCI   6
CROOKSTON      SUNNY     23  16  74 S20       30.22F WCI   8
FOSSTON        SUNNY     23  10  58 S17       30.22F WCI   9
DETROIT LAKES  SUNNY     25  10  54 S15       30.24F WCI  12
MAHNOMEN       FAIR      23  10  57 S21       30.22F WCI   8
$$
MNZ006-009>011-018-025>026-022000-
   North Central Minnesota

CITY           SKY/WX    TMP DP  RH WIND       PRES   REMARKS
BAUDETTE       SUNNY     22  11  62 S7        30.18F WCI  13
LONGVILLE      SUNNY     27   5  39 SW8       30.26F WCI  18
GRAND RAPIDS   SUNNY     21  10  63 SW8       30.28F WCI  12
ORR            SUNNY     25   1  36 S9        30.22F WCI  15
COOK           SUNNY     23   5  46 SW9       30.28F WCI  13
WALKER         FAIR      24   7  49 SW8       30.25F WCI  15
$$
MNZ012-019>021-037-022000-
   Northeast Minnesota

CITY           SKY/WX    TMP DP  RH WIND       PRES   REMARKS
ELY            SUNNY     21   5  49 SW7       30.26F WCI  13
EVELETH        SUNNY     23   9  54 SW7       30.28F WCI  15
DULUTH HARBOR  SUNNY     27  10  50 W14       30.37F WCI  15
$$
MNZ029>031-032-039>041-046>048-054>057-064-022000-
   West Central Minnesota

CITY           SKY/WX    TMP DP  RH WIND       PRES   REMARKS
WHEATON        SUNNY     25  10  54 SE18G24   30.27F WCI  11
ALEXANDRIA     SUNNY     23   8  52 S16       30.27F WCI  10
ELBOW LAKE     FAIR      24  12  60 S22       30.27F WCI   9
WADENA         SUNNY     23   9  54 S12       30.26F WCI  12
WILLMAR        FAIR      27  10  50 S14       30.35F WCI  15
$$
MNZ033>034-036-042>043-049>051-058-059-022000-
   Central Minnesota

CITY           SKY/WX    TMP DP  RH WIND       PRES   REMARKS
BRAINERD       SUNNY     24   8  50 S13G20    30.30F WCI  12
LONG PRAIRIE   FAIR      25  12  58 SE13      30.31F WCI  13
BUFFALO        SUNNY    N/A N/A N/A S8        30.39F
MAPLE LAKE     SUNNY     26  12  54 S6        30.39F WCI  20
$$
MNZ037-044-045-052-053-022000-
   East Central Minnesota

CITY           SKY/WX    TMP DP  RH WIND       PRES   REMARKS
MORA           SUNNY     27  10  50 S5        30.39F WCI  21
RUSH CITY      SUNNY     24   7  49 SW6       30.39F WCI  17
MOOSE LAKE     SUNNY     27   9  46 S7        30.33F WCI  19
CLOQUET        SUNNY     23   7  50 SW10G17   30.33F WCI  12
$$
MNZ071>073-080-081-089-090-097-098-022000-
   Southwest Minnesota

CITY           SKY/WX    TMP DP  RH WIND       PRES   REMARKS
MARSHALL       MOSUNNY   25  12  58 S15G25    30.33F WCI  12
WORTHINGTON    CLOUDY    23  12  63 SE14      30.34F WCI  11
SLAYTON        CLOUDY    25  14  63 SE18      30.29F WCI  11
$$
MNZ065>067-074>077-082>085-091>093-022000-
   South Central Minnesota

CITY           SKY/WX    TMP DP  RH WIND       PRES   REMARKS
MANKATO        MOSUNNY   21   9  58 S9        30.42F WCI  11
FAIRMONT       PTSUNNY   21  12  68 S13       30.39F WCI   9
OWATONNA       SUNNY     21   9  58 S10       30.41F WCI  10
$$
MNZ078>079-086>088-094>096-022000-
   Southeast Minnesota

CITY           SKY/WX    TMP DP  RH WIND       PRES   REMARKS
WINONA         SUNNY     28  12  50 CALM      30.47F
AUSTIN         MOSUNNY   19  10  68 S5        30.42F WCI  13
$$
ABBREVIATIONS USED IN REMARKS
   TC - TEMPERATURES IN CELSIUS
  WCI - WIND CHILL INDEX
   HX - HEAT INDEX
  VSB - VISIBILITY
$$



USA.gov is the U.S. government's official web portal to all federal, state and local government web resources and services.